Home > Weather > Medan > Past weeks

Flag for Indonesia Weather for the Past 2 Weeks in Medan, North Sumatra, Indonesia

Now
82 °F

Passing clouds.


Feels Like: 92 °F
Forecast: 77 / 89 °F
Wind: 5 mph from Southwest

Location: Medan / Polonia

Current Time: Feb 13, 2016 at 10:21:01 PM

Latest Report: Feb 13, 2016 at 9:30 PM


Visibility: 4 mi

Pressure: 29.83 "Hg

Humidity: 89%

Dew point: 79 °F

Location of MedanLocation

Historic Weather in Medan — Graph

°F

Medan Temperature Yesterday

Maximum temperature yesterday: 90 °F (at 1:30 PM)
Minimum temperature yesterday: 75 °F (at 2:00 AM)
Average temperature yesterday: 82 °F

High & Low Weather Summary for the Past Weeks

 TemperatureHumidityPressure
High90 °F (Feb 2, 1:00 PM)100% (Jan 30, 3:30 AM)29.92 "Hg (Jan 30, 3:30 AM)
Low73 °F (Feb 2, 5:30 AM)59% (Feb 4, 2:30 PM)29.71 "Hg (Feb 5, 3:30 PM)
Average81 °F88%29.82 "Hg
* Reported Jan 29 9:00 PM — Feb 13 9:00 PM, Medan, Weather by CustomWeather, © 2016

Note: Actual official high and low records may vary slightly from our data, if they occured in-between our weather recording intervals... More about our weather records

Advertising

Medan Weather History for the Previous 24 Hours

 ConditionsComfort  
Time TempWeatherWind HumidityBarometerVisibility
9:00 PM
Sat, Feb 13
82 °FPassing clouds.3 mph89%29.83 "Hg4 mi
8:30 PM81 °FPassing clouds.No wind100%29.80 "Hg4 mi
8:00 PM82 °FPassing clouds.3 mph89%29.80 "Hg4 mi
7:30 PM82 °FPassing clouds.5 mph89%29.80 "Hg4 mi
7:00 PM82 °FPassing clouds.9 mph89%29.77 "HgN/A
6:00 PM84 °FPartly sunny.9 mph79%29.77 "HgN/A
5:30 PM84 °FScattered clouds.7 mph79%29.74 "HgN/A
5:00 PM84 °FScattered clouds.10 mph84%29.74 "HgN/A
4:30 PM84 °FScattered clouds.9 mph84%29.74 "HgN/A
4:00 PM86 °FScattered clouds.9 mph84%29.74 "HgN/A
3:30 PM86 °FScattered clouds.10 mph84%29.77 "HgN/A
3:00 PM86 °FScattered clouds.10 mph84%29.77 "HgN/A
2:30 PM86 °FScattered clouds.12 mph79%29.77 "HgN/A
2:00 PM86 °FPartly sunny.14 mph79%29.77 "HgN/A
1:30 PM86 °FScattered clouds.9 mph84%29.80 "HgN/A
1:00 PM88 °FScattered clouds.9 mph75%29.83 "HgN/A
12:30 PM86 °FScattered clouds.8 mph79%29.83 "HgN/A
12:00 PM86 °FScattered clouds.8 mph79%29.86 "HgN/A
11:00 AM84 °FScattered clouds.5 mph84%29.86 "HgN/A
10:30 AM82 °FScattered clouds.5 mph89%29.86 "HgN/A
10:00 AM82 °FScattered clouds.5 mph89%29.86 "Hg6 mi
9:00 AM81 °FScattered clouds.3 mph89%29.86 "HgN/A
8:30 AM79 °FScattered clouds.3 mph94%29.86 "HgN/A
8:00 AM79 °FScattered clouds.7 mph94%29.86 "Hg4 mi
7:30 AM77 °FScattered clouds.3 mph94%29.83 "Hg2 mi
7:00 AM77 °FScattered clouds.3 mph94%29.80 "Hg3 mi
6:30 AM77 °FPassing clouds.3 mph94%29.80 "Hg3 mi
6:00 AM77 °FPassing clouds.No wind94%29.80 "Hg3 mi
5:00 AM77 °FPassing clouds.No wind94%29.80 "Hg3 mi
4:30 AM77 °FPassing clouds.No wind94%29.80 "Hg4 mi
4:00 AM77 °FPassing clouds.No wind94%29.77 "Hg4 mi
3:30 AM77 °FPassing clouds.3 mph94%29.80 "Hg4 mi
3:00 AM77 °FPassing clouds.3 mph94%29.80 "Hg4 mi
2:30 AM77 °FPassing clouds.No wind94%29.80 "Hg4 mi
2:00 AM77 °FPassing clouds.No wind94%29.80 "Hg4 mi
1:30 AM77 °FPassing clouds.5 mph94%29.80 "Hg4 mi
1:00 AM77 °FPassing clouds.5 mph94%29.83 "Hg4 mi
12:30 AM77 °FPassing clouds.6 mph94%29.83 "Hg4 mi
12:00 AM77 °FPassing clouds.6 mph89%29.83 "Hg4 mi
11:30 PM
Fri, Feb 12
77 °FPassing clouds.6 mph89%29.86 "Hg4 mi
11:00 PM77 °FPassing clouds.6 mph89%29.86 "Hg4 mi
10:30 PM77 °FPassing clouds.7 mph89%29.83 "Hg4 mi
10:00 PM79 °FPassing clouds.6 mph84%29.83 "Hg4 mi
Weather by CustomWeather, © 2016

See weather overviewHow to use our weather pages